Pine Bluff, AR

8:19 AM CDT on June 27, 2017 (GMT -0500)
Grider

Weather History for KPBF - April, 2014

Change the Weather History Date:

Thursday, April 24, 2014

  Actual Average Record
Temperature  
Mean Temperature 68 °F 65 °F  
Max Temperature 81 °F 76 °F 90 °F (1965)
Min Temperature 54 °F 54 °F 41 °F (1982)
Degree Days  
Heating Degree Days 0 3  
Month to date heating degree days 138 117  
Since 1 July heating degree days 3391 2852  
Cooling Degree Days 3 3  
Month to date cooling degree days 35 46  
Year to date cooling degree days 35 66  
Growing Degree Days 16 (Base 50)    
Moisture  
Dew Point 60 °F    
Average Humidity 69    
Maximum Humidity 90    
Minimum Humidity 48    
Precipitation  
Precipitation 0.73 in 0.18 in 4.38 in (1966)
Month to date precipitation 4.44 3.96  
Year to date precipitation 14.33 17.18  
Snow  
Snow 0.00 in 0.00 in - ()
Month to date snowfall 0.0 0.0  
Since 1 July snowfall 3.7 3.1  
Snow Depth 0.00 in    
Sea Level Pressure  
Sea Level Pressure 29.79 in    
Wind  
Wind Speed 8 mph (SW)    
Max Wind Speed 24 mph    
Max Gust Speed 31 mph    
Visibility 8 miles    
Events Rain , Thunderstorm    
T = Trace of Precipitation, MM = Missing Value Source: NWS Daily Summary

Daily Weather History Graph

Daily Weather History Graph

Search for Another Location

Airport or City:

Trip Planner

Search our weather history database for the weather conditions in past years. The results will help you decide how hot, cold, wet, or windy it might be!

Date:

Astronomy

Apr. 24, 2014 Rise Set
Actual Time 6:25 AM CDT 7:46 PM CDT
Civil Twilight 5:59 AM CDT 8:12 PM CDT
Nautical Twilight 5:28 AM CDT 8:44 PM CDT
Astronomical Twilight 4:55 AM CDT 9:16 PM CDT
Moon 3:23 AM CDT (4/24) 3:14 PM CDT (4/24)
Length of Visible Light 14h 13m
Length of Day
13h 20m
Waning Crescent, 24% of the Moon is Illuminated
Apr 24
Waning Crescent
Apr 29
New
May 6
First Quarter
May 14
Full
May 21
Last Quarter

Hourly Weather History & Observations

Time (CDT) Temp. Dew Point Humidity Pressure Visibility Wind Dir Wind Speed Gust Speed Precip Events Conditions
12:53 AM 55.9 °F 48.9 °F 77% 29.89 in 10.0 mi East 4.6 mph - N/A   Clear
1:53 AM 57.0 °F 50.0 °F 77% 29.87 in 10.0 mi Calm Calm - N/A   Clear
2:53 AM 55.9 °F 48.9 °F 77% 29.87 in 10.0 mi Calm Calm - N/A   Scattered Clouds
3:53 AM 57.0 °F 50.0 °F 77% 29.87 in 10.0 mi Calm Calm - N/A   Scattered Clouds
4:53 AM 55.9 °F 50.0 °F 80% 29.87 in 10.0 mi ESE 3.5 mph - N/A   Partly Cloudy
5:53 AM 57.0 °F 48.9 °F 74% 29.88 in 10.0 mi SSW 3.5 mph - N/A   Clear
6:53 AM 55.0 °F 48.0 °F 77% 29.90 in 10.0 mi Calm Calm - N/A   Clear
7:53 AM 57.9 °F 52.0 °F 81% 29.89 in 10.0 mi Calm Calm - N/A   Clear
8:53 AM 64.0 °F 52.0 °F 65% 29.86 in 10.0 mi South 5.8 mph - N/A   Clear
9:53 AM 69.1 °F 57.9 °F 68% 29.86 in 10.0 mi SSE 8.1 mph - N/A   Clear
10:53 AM 75.0 °F 57.9 °F 55% 29.87 in 10.0 mi South 17.3 mph 21.9 mph N/A   Clear
11:53 AM 78.1 °F 57.0 °F 48% 29.85 in 10.0 mi SSW 19.6 mph 29.9 mph N/A   Clear
12:53 PM 78.1 °F 57.0 °F 48% 29.83 in 10.0 mi South 15.0 mph 23.0 mph N/A   Mostly Cloudy
1:53 PM 78.1 °F 60.1 °F 54% 29.78 in 10.0 mi South 13.8 mph 21.9 mph N/A   Overcast
2:51 PM 77.0 °F 60.8 °F 57% 29.75 in 10.0 mi South 13.8 mph - N/A Thunderstorm Thunderstorm
2:53 PM 77.0 °F 60.1 °F 56% 29.75 in 10.0 mi South 10.4 mph 18.4 mph N/A Thunderstorm Thunderstorm
3:11 PM 73.4 °F 62.6 °F 69% 29.74 in 1.8 mi SE 15.0 mph 21.9 mph 0.14 in Rain , Thunderstorm Heavy Thunderstorms and Rain
3:21 PM 71.6 °F 64.4 °F 78% 29.73 in 4.0 mi SSE 6.9 mph - 0.15 in Rain , Thunderstorm Light Thunderstorms and Rain
3:53 PM 70.0 °F 64.9 °F 84% 29.74 in 5.0 mi SW 13.8 mph - 0.23 in Rain , Thunderstorm Thunderstorms and Rain
3:58 PM 69.8 °F 64.4 °F 83% 29.73 in 1.8 mi SW 11.5 mph - 0.13 in Rain , Thunderstorm Heavy Thunderstorms and Rain
4:08 PM 69.8 °F 66.2 °F 88% 29.73 in 4.0 mi SSW 9.2 mph - 0.16 in Rain , Thunderstorm Light Thunderstorms and Rain
4:26 PM 69.8 °F 66.2 °F 88% 29.74 in 3.0 mi West 8.1 mph - 0.19 in Rain Light Rain
4:41 PM 69.8 °F 66.2 °F 88% 29.74 in 2.0 mi WSW 6.9 mph - 0.23 in Rain Heavy Rain
4:53 PM 69.1 °F 66.0 °F 90% 29.73 in 5.0 mi WSW 6.9 mph - 0.24 in Rain Light Rain
5:23 PM 69.8 °F 66.2 °F 88% 29.75 in 2.0 mi WSW 9.2 mph - 0.02 in Rain Rain
5:30 PM 69.8 °F 66.2 °F 88% 29.75 in 2.0 mi WSW 9.2 mph - 0.03 in Rain Light Rain
5:38 PM 69.8 °F 66.2 °F 88% 29.74 in 4.0 mi SW 8.1 mph - 0.03 in Rain Light Rain
5:53 PM 71.1 °F 68.0 °F 90% 29.74 in 9.0 mi SW 10.4 mph - 0.03 in   Overcast
6:10 PM 71.6 °F 68.0 °F 88% 29.74 in 10.0 mi SW 9.2 mph - N/A   Overcast
6:37 PM 71.6 °F 66.2 °F 83% 29.74 in 10.0 mi SW 11.5 mph - N/A   Overcast
6:53 PM 70.0 °F 66.0 °F 87% 29.73 in 10.0 mi SW 9.2 mph - N/A   Scattered Clouds
7:27 PM 69.8 °F 66.2 °F 88% 29.74 in 10.0 mi SW 6.9 mph - 0.00 in Rain , Thunderstorm Light Thunderstorms and Rain
7:44 PM 66.2 °F 60.8 °F 83% 29.77 in 1.8 mi West 12.7 mph 19.6 mph 0.15 in Rain , Thunderstorm Heavy Thunderstorms and Rain
7:53 PM 63.0 °F 60.1 °F 90% 29.75 in 1.2 mi WSW 9.2 mph 18.4 mph 0.23 in Rain , Thunderstorm Light Thunderstorms and Rain
7:56 PM 62.6 °F 60.8 °F 94% 29.76 in 3.0 mi SW 11.5 mph - 0.00 in Rain , Thunderstorm Light Thunderstorms and Rain
8:15 PM 62.6 °F 60.8 °F 94% 29.77 in 10.0 mi WSW 6.9 mph - 0.00 in   Mostly Cloudy
8:53 PM 63.0 °F 59.0 °F 87% 29.79 in 10.0 mi WNW 6.9 mph - 0.00 in   Partly Cloudy
9:53 PM 62.1 °F 57.9 °F 86% 29.83 in 10.0 mi West 6.9 mph - N/A   Clear
10:53 PM 61.0 °F 57.9 °F 90% 29.84 in 10.0 mi West 5.8 mph - N/A   Clear
11:53 PM 61.0 °F 55.9 °F 83% 29.85 in 10.0 mi WSW 6.9 mph - N/A   Clear